ASA634 KLAS-KSFO

Flight info

Callsign ASA634
Flight time 1h 9m
Altitude 36000
Route JOHKR5 KENNO RUSME DYAMD5
Aircraft B739/M-SDE2E3FGHIRWXY/LB1

Departure

Time 2026-04-30 21:41
Airport Harry Reid International Airport (KLAS)

Arrival

Time 2026-04-30 22:50
Airport San Francisco International Airport (KSFO)
Time Latitude Longitude Altitude Speed Heading
2026-04-30 20:57 36.08528 -115.14056 2189 ft 0 kts 360°
2026-04-30 21:31 36.08482 -115.14056 2189 ft 4 kts 349°
2026-04-30 21:31 36.08465 -115.14011 2191 ft 4 kts 270°
2026-04-30 21:32 36.08465 -115.13990 2191 ft 0 kts 270°
2026-04-30 21:33 36.08465 -115.14001 2191 ft 6 kts 270°
2026-04-30 21:34 36.08418 -115.14086 2189 ft 18 kts 225°
2026-04-30 21:34 36.08218 -115.14242 2189 ft 17 kts 179°
2026-04-30 21:34 36.08100 -115.14242 2188 ft 17 kts 180°
2026-04-30 21:35 36.07986 -115.14242 2189 ft 16 kts 180°
2026-04-30 21:35 36.07892 -115.14242 2188 ft 2 kts 179°
2026-04-30 21:35 36.07891 -115.14242 2188 ft 1 kts 179°
2026-04-30 21:35 36.07840 -115.14242 2188 ft 13 kts 180°
2026-04-30 21:36 36.07756 -115.14292 2189 ft 15 kts 262°
2026-04-30 21:36 36.07760 -115.14421 2189 ft 15 kts 275°
2026-04-30 21:37 36.07789 -115.14865 2188 ft 22 kts 275°
2026-04-30 21:37 36.07801 -115.15055 2189 ft 22 kts 274°
2026-04-30 21:37 36.07805 -115.15240 2188 ft 21 kts 270°
2026-04-30 21:37 36.07805 -115.15420 2188 ft 21 kts 270°
2026-04-30 21:38 36.07805 -115.15592 2187 ft 20 kts 269°
2026-04-30 21:38 36.07805 -115.15761 2187 ft 19 kts 270°
2026-04-30 21:38 36.07804 -115.15925 2187 ft 19 kts 270°
2026-04-30 21:38 36.07803 -115.16084 2186 ft 18 kts 263°
2026-04-30 21:39 36.07750 -115.16130 2188 ft 0 kts 179°
2026-04-30 21:39 36.07741 -115.16130 2189 ft 4 kts 179°
2026-04-30 21:39 36.07687 -115.16129 2189 ft 11 kts 179°
2026-04-30 21:40 36.07639 -115.16056 2191 ft 15 kts 90°
2026-04-30 21:40 36.07640 -115.15691 2192 ft 75 kts 90°
2026-04-30 21:40 36.07640 -115.14788 2190 ft 133 kts 90°
2026-04-30 21:40 36.07654 -115.13463 2248 ft 171 kts 87°
2026-04-30 21:41 36.07663 -115.11946 2774 ft 179 kts 87°
2026-04-30 21:41 36.07664 -115.10437 3468 ft 175 kts 87°
2026-04-30 21:41 36.07658 -115.08836 3741 ft 199 kts 88°
2026-04-30 21:41 36.07457 -115.07035 3926 ft 224 kts 98°
2026-04-30 21:42 36.07127 -115.05065 4200 ft 242 kts 97°
2026-04-30 21:42 36.06790 -115.02986 4720 ft 252 kts 98°
2026-04-30 21:42 36.06450 -115.00850 5488 ft 255 kts 98°
2026-04-30 21:42 36.06108 -114.98675 6227 ft 259 kts 98°
2026-04-30 21:43 36.05765 -114.96488 6941 ft 261 kts 98°
2026-04-30 21:43 36.05419 -114.94276 7705 ft 262 kts 98°
2026-04-30 21:43 36.04782 -114.92147 8435 ft 272 kts 121°
2026-04-30 21:43 36.03450 -114.90435 9123 ft 282 kts 143°
2026-04-30 21:44 36.01682 -114.89423 9976 ft 282 kts 160°
2026-04-30 21:44 35.99773 -114.88807 10633 ft 286 kts 178°
2026-04-30 21:44 35.97841 -114.89234 11301 ft 286 kts 207°
2026-04-30 21:44 35.96167 -114.90630 11657 ft 300 kts 224°
2026-04-30 21:45 35.94584 -114.92449 11834 ft 322 kts 226°
2026-04-30 21:45 35.92896 -114.94414 11997 ft 345 kts 225°
2026-04-30 21:45 35.91084 -114.96484 12204 ft 364 kts 225°
2026-04-30 21:45 35.89315 -114.98799 12442 ft 377 kts 240°
2026-04-30 21:46 35.88331 -115.01755 13215 ft 371 kts 259°
2026-04-30 21:46 35.88076 -115.04867 14096 ft 363 kts 272°
2026-04-30 21:46 35.88113 -115.08003 14636 ft 369 kts 275°
2026-04-30 21:46 35.88205 -115.11172 15259 ft 371 kts 275°
2026-04-30 21:47 35.88308 -115.14369 15784 ft 376 kts 274°
2026-04-30 21:47 35.88399 -115.17593 16436 ft 377 kts 274°
2026-04-30 21:47 35.88480 -115.20862 16874 ft 384 kts 274°
2026-04-30 21:47 35.88551 -115.24167 17376 ft 388 kts 273°
2026-04-30 21:48 35.88614 -115.27519 17820 ft 394 kts 273°
2026-04-30 21:48 35.88674 -115.30918 18343 ft 397 kts 274°
2026-04-30 21:48 35.88731 -115.34330 18772 ft 400 kts 274°
2026-04-30 21:48 35.88785 -115.37784 19157 ft 405 kts 273°
2026-04-30 21:49 35.88840 -115.41273 19611 ft 408 kts 274°
2026-04-30 21:49 35.88894 -115.44778 20117 ft 410 kts 274°
2026-04-30 21:49 35.88947 -115.48298 20584 ft 412 kts 274°
2026-04-30 21:49 35.88999 -115.51838 21018 ft 414 kts 274°
2026-04-30 21:50 35.89082 -115.55353 21441 ft 417 kts 274°
2026-04-30 21:50 35.89131 -115.58940 21894 ft 419 kts 274°
2026-04-30 21:50 35.89170 -115.62593 22330 ft 422 kts 274°
2026-04-30 21:50 35.89209 -115.66219 22717 ft 425 kts 274°
2026-04-30 21:51 35.89252 -115.69824 23079 ft 428 kts 274°
2026-04-30 21:51 35.89297 -115.73508 23490 ft 431 kts 274°
2026-04-30 21:51 35.89344 -115.77213 23832 ft 433 kts 274°
2026-04-30 21:51 35.89391 -115.80932 24201 ft 434 kts 274°
2026-04-30 21:52 35.89436 -115.84660 24584 ft 436 kts 274°
2026-04-30 21:52 35.89481 -115.88407 24942 ft 438 kts 274°
2026-04-30 21:52 35.89852 -115.92110 25226 ft 434 kts 290°
2026-04-30 21:52 35.91088 -115.95474 25582 ft 431 kts 304°
2026-04-30 21:53 35.92972 -115.98319 25963 ft 428 kts 316°
2026-04-30 21:53 35.95086 -116.00920 26316 ft 430 kts 316°
2026-04-30 21:53 35.97234 -116.03497 26660 ft 431 kts 317°
2026-04-30 21:53 35.99409 -116.06056 26933 ft 433 kts 318°
2026-04-30 21:54 36.01595 -116.08625 27234 ft 436 kts 316°
2026-04-30 21:54 36.03741 -116.11285 27536 ft 438 kts 315°
2026-04-30 21:54 36.05882 -116.13966 27862 ft 439 kts 315°
2026-04-30 21:54 36.08035 -116.16658 28155 ft 441 kts 315°
2026-04-30 21:55 36.10199 -116.19358 28440 ft 443 kts 315°
2026-04-30 21:55 36.12377 -116.22068 28799 ft 443 kts 315°
2026-04-30 21:55 36.14543 -116.24760 29345 ft 440 kts 315°
2026-04-30 21:55 36.16694 -116.27431 29874 ft 437 kts 315°
2026-04-30 21:56 36.18830 -116.30087 30305 ft 435 kts 315°
2026-04-30 21:56 36.20964 -116.32742 30630 ft 435 kts 315°
2026-04-30 21:56 36.23098 -116.35401 30931 ft 436 kts 315°
2026-04-30 21:56 36.25233 -116.38062 31272 ft 435 kts 315°
2026-04-30 21:57 36.27363 -116.40719 31637 ft 434 kts 315°
2026-04-30 21:57 36.29498 -116.43356 31991 ft 433 kts 315°
2026-04-30 21:57 36.31662 -116.45939 32384 ft 431 kts 316°
2026-04-30 21:57 36.33831 -116.48495 32728 ft 430 kts 316°
2026-04-30 21:58 36.36000 -116.51048 32979 ft 430 kts 316°
2026-04-30 21:58 36.38165 -116.53608 33235 ft 430 kts 315°
2026-04-30 21:58 36.40321 -116.56179 33563 ft 430 kts 315°
2026-04-30 21:58 36.42468 -116.58743 33947 ft 426 kts 315°
2026-04-30 21:59 36.44595 -116.61283 34277 ft 424 kts 316°
2026-04-30 21:59 36.46754 -116.63783 34489 ft 425 kts 316°
2026-04-30 21:59 36.48937 -116.66246 34758 ft 423 kts 317°
2026-04-30 22:00 36.53290 -116.71152 35248 ft 422 kts 316°
2026-04-30 22:00 36.57617 -116.76077 35716 ft 421 kts 316°
2026-04-30 22:00 36.59778 -116.78543 35858 ft 422 kts 316°
2026-04-30 22:01 36.64119 -116.83498 35872 ft 422 kts 316°
2026-04-30 22:01 36.68428 -116.88420 35864 ft 420 kts 316°
2026-04-30 22:02 36.72713 -116.93340 35868 ft 418 kts 317°
2026-04-30 22:02 36.75055 -116.95489 35889 ft 419 kts 329°
2026-04-30 22:02 36.77648 -116.97163 35895 ft 419 kts 330°
2026-04-30 22:03 36.82856 -117.00426 35916 ft 418 kts 330°
2026-04-30 22:03 36.88029 -117.03724 35903 ft 416 kts 330°
2026-04-30 22:04 36.93177 -117.07058 35882 ft 417 kts 330°
2026-04-30 22:05 37.00896 -117.12091 35940 ft 419 kts 329°
2026-04-30 22:05 37.06080 -117.15470 35955 ft 420 kts 329°
2026-04-30 22:06 37.11284 -117.18870 35930 ft 423 kts 329°
2026-04-30 22:06 37.19145 -117.24010 35969 ft 425 kts 329°
2026-04-30 22:07 37.24392 -117.27448 35949 ft 425 kts 329°
2026-04-30 22:07 37.29582 -117.30880 35940 ft 424 kts 327°
2026-04-30 22:08 37.34164 -117.35407 35957 ft 418 kts 316°
2026-04-30 22:08 37.38497 -117.40254 35947 ft 416 kts 317°
2026-04-30 22:09 37.42875 -117.44998 35955 ft 414 kts 317°
2026-04-30 22:09 37.47199 -117.49756 35923 ft 411 kts 309°
2026-04-30 22:10 37.48742 -117.52745 35975 ft 407 kts 296°
2026-04-30 22:10 37.49733 -117.56087 35937 ft 409 kts 284°
2026-04-30 22:10 37.50483 -117.63240 35960 ft 416 kts 277°
2026-04-30 22:11 37.51270 -117.74165 35930 ft 417 kts 277°
2026-04-30 22:12 37.51825 -117.81424 35933 ft 416 kts 278°
2026-04-30 22:12 37.52301 -117.87438 35934 ft 415 kts 278°
2026-04-30 22:13 37.52879 -117.94660 35935 ft 414 kts 278°
2026-04-30 22:13 37.53454 -118.01876 35949 ft 413 kts 278°
2026-04-30 22:14 37.54024 -118.09083 35925 ft 414 kts 278°
2026-04-30 22:14 37.54587 -118.16273 35976 ft 412 kts 278°
2026-04-30 22:15 37.55142 -118.23438 35988 ft 410 kts 277°
2026-04-30 22:15 37.55694 -118.30595 35997 ft 411 kts 277°
2026-04-30 22:16 37.56244 -118.37785 35980 ft 413 kts 277°
2026-04-30 22:17 37.57333 -118.52194 35973 ft 413 kts 277°
2026-04-30 22:17 37.58138 -118.63007 36094 ft 413 kts 277°
2026-04-30 22:18 37.58934 -118.73829 36152 ft 413 kts 277°
2026-04-30 22:19 37.59718 -118.84640 36162 ft 413 kts 277°
2026-04-30 22:20 37.60493 -118.95450 36168 ft 413 kts 277°
2026-04-30 22:20 37.61256 -119.06245 36111 ft 411 kts 277°
2026-04-30 22:21 37.61508 -119.09843 35974 ft 412 kts 277°
2026-04-30 22:21 37.61759 -119.13435 35997 ft 411 kts 277°
2026-04-30 22:21 37.62256 -119.20607 35989 ft 410 kts 277°
2026-04-30 22:22 37.62744 -119.27717 35984 ft 408 kts 277°
2026-04-30 22:22 37.63230 -119.34839 36005 ft 407 kts 277°
2026-04-30 22:23 37.63711 -119.41968 36010 ft 408 kts 277°
2026-04-30 22:23 37.64190 -119.49125 36012 ft 410 kts 277°
2026-04-30 22:24 37.64666 -119.56291 36024 ft 410 kts 277°
2026-04-30 22:24 37.65137 -119.63468 36001 ft 411 kts 277°
2026-04-30 22:25 37.65604 -119.70653 36017 ft 411 kts 277°
2026-04-30 22:25 37.66069 -119.77849 36004 ft 412 kts 277°
2026-04-30 22:26 37.66758 -119.88679 35973 ft 413 kts 277°
2026-04-30 22:27 37.67212 -119.95892 35951 ft 413 kts 277°
2026-04-30 22:27 37.67442 -119.99558 35279 ft 422 kts 277°
2026-04-30 22:27 37.67900 -120.06954 33851 ft 423 kts 277°
2026-04-30 22:28 37.68348 -120.14286 32668 ft 415 kts 277°
2026-04-30 22:28 37.68567 -120.17903 32116 ft 411 kts 277°
2026-04-30 22:29 37.69211 -120.28576 30488 ft 402 kts 276°
2026-04-30 22:29 37.69421 -120.32084 29942 ft 400 kts 276°
2026-04-30 22:30 37.69448 -120.45914 27417 ft 397 kts 264°
2026-04-30 22:31 37.68103 -120.56159 25778 ft 390 kts 264°
2026-04-30 22:32 37.66904 -120.66199 24274 ft 383 kts 265°
2026-04-30 22:32 37.66123 -120.72840 23207 ft 381 kts 265°
2026-04-30 22:33 37.64938 -120.82736 21485 ft 378 kts 264°
2026-04-30 22:33 37.64151 -120.89253 20511 ft 373 kts 264°
2026-04-30 22:34 37.62966 -120.98883 19018 ft 370 kts 264°
2026-04-30 22:35 37.62109 -121.05262 18022 ft 368 kts 263°
2026-04-30 22:36 37.60416 -121.17837 16072 ft 360 kts 263°
2026-04-30 22:36 37.59999 -121.20935 15604 ft 358 kts 263°
2026-04-30 22:37 37.58801 -121.30148 14204 ft 353 kts 264°
2026-04-30 22:37 37.58454 -121.33207 13736 ft 352 kts 264°
2026-04-30 22:37 37.57770 -121.39290 12763 ft 349 kts 264°
2026-04-30 22:38 37.57083 -121.45271 11841 ft 345 kts 263°
2026-04-30 22:38 37.56398 -121.51209 10977 ft 341 kts 263°
2026-04-30 22:39 37.56054 -121.54157 10521 ft 339 kts 262°
2026-04-30 22:39 37.55052 -121.62655 9977 ft 312 kts 260°
2026-04-30 22:40 37.53296 -121.70104 9113 ft 290 kts 252°
2026-04-30 22:41 37.51550 -121.77256 8190 ft 273 kts 253°
2026-04-30 22:41 37.50478 -121.81725 7742 ft 264 kts 253°
2026-04-30 22:42 37.49202 -121.90641 6618 ft 258 kts 276°
2026-04-30 22:43 37.49506 -121.95116 6052 ft 255 kts 275°
2026-04-30 22:43 37.49776 -121.99558 5466 ft 254 kts 275°
2026-04-30 22:44 37.50031 -122.03976 4912 ft 252 kts 275°
2026-04-30 22:45 37.51375 -122.12147 4073 ft 223 kts 300°
2026-04-30 22:45 37.53154 -122.15184 3301 ft 222 kts 315°
2026-04-30 22:46 37.54945 -122.18234 2825 ft 207 kts 301°
2026-04-30 22:47 37.57316 -122.23910 1801 ft 161 kts 291°
2026-04-30 22:47 37.58241 -122.26348 1458 ft 152 kts 293°
2026-04-30 22:48 37.59069 -122.28825 1247 ft 149 kts 289°
2026-04-30 22:49 37.60165 -122.32347 842 ft 140 kts 290°
2026-04-30 22:49 37.61343 -122.35665 107 ft 133 kts 295°
2026-04-30 22:50 37.62032 -122.37844 21 ft 26 kts 229°
2026-04-30 22:51 37.61770 -122.37952 21 ft 22 kts 172°
2026-04-30 22:51 37.61529 -122.38056 21 ft 18 kts 208°
2026-04-30 22:52 37.61422 -122.38126 21 ft 17 kts 207°
2026-04-30 22:52 37.61345 -122.38253 21 ft 0 kts 241°
2026-04-30 22:53 37.61345 -122.38256 21 ft 1 kts 258°
2026-04-30 22:53 37.61384 -122.38352 21 ft 3 kts 235°
2026-04-30 22:53 37.61372 -122.38377 22 ft 3 kts 238°
2026-04-30 22:54 37.61360 -122.38401 22 ft 0 kts 239°